#timestamp,LO_Frequency,Hit,StdDev 
1515340815.5,286046998.4,N
1515340835.3,286046999.5,N
1515340855.1,286046996.7,N
1515340875.9,286046998.9,N
1515340895.7,286046998.2,N
1515340915.6,286047000.8,N
1515340935.4,286046998.6,N
1515340955.2,286047001.0,N
1515340975.1,286047002.7,N
1515340976.0,286047002.7,N
1515340995.8,286047002.1,N
1515341015.6,286047001.5,N
1515341035.5,286047002.2,N
1515341055.3,286047003.6,N
1515341075.2,286047003.2,N
1515341095.9,286047001.8,N
1515341115.7,286047002.6,N
1515341135.6,286047000.5,N
1515341155.4,286047000.6,N
1515341175.2,286047000.5,N
1515341195.1,286047000.7,N
1515341196.0,286047000.7,N
1515341215.8,286047000.0,N
1515341235.7,286047001.6,N
1515341255.5,286047001.8,N
1515341275.4,286047002.4,N
1515341295.2,286047002.1,N
1515341315.0,286047001.9,N
1515341315.9,286047001.9,N
1515341335.8,286047001.7,N
1515341355.6,286047004.4,N
1515341375.4,286047001.7,N
1515341395.3,286047001.6,N
1515341415.1,286047002.6,N
1515341435.9,286047002.1,N
1515341455.7,286047002.8,N
1515341475.5,286047004.4,Y
1515341495.4,286047000.2,P
1515341515.2,286047000.1,N
1515341535.0,286047000.3,N
1515341535.9,286047000.3,N
1515341555.8,286047000.2,N
1515341575.6,286047001.0,N
1515341595.5,286046998.1,Y
1515341615.3,286047001.1,P
1515341635.1,286046998.1,P
1515341655.9,286047001.1,N
1515341675.7,286047000.7,N
1515341695.5,286046998.4,N
1515341715.4,286046998.3,N
1515341735.2,286046999.5,N
1515341755.1,286046999.5,N
1515341756.0,286046999.5,N
1515341775.8,286046999.3,N
1515341795.6,286046997.2,N
1515341815.5,286046999.6,N
1515341835.3,286047001.2,N
1515341855.1,286046998.7,N
1515341875.9,286047000.6,N
1515341895.7,286047000.4,N
1515341915.6,286047000.3,N
1515341935.4,286047000.8,N
1515341955.2,286047000.3,N
1515341975.1,286046998.1,N
1515341976.0,286046998.1,N
1515341995.8,286047000.9,N
1515342015.7,286047000.6,N
1515342035.5,286046999.9,N
1515342055.3,286046999.7,N
1515342075.2,286047000.2,N
1515342095.9,286047000.1,N
1515342115.7,286047001.9,N
1515342135.6,286047002.6,N
1515342155.4,286047002.7,N
1515342175.2,286046999.7,N
1515342195.1,286047004.3,Y
1515342196.0,286047004.3,P
1515342215.8,286047010.6,P
1515342235.7,286047016.5,P
1515342255.5,286047011.7,N
1515342275.3,286047014.8,N
1515342295.2,286047020.1,Y
1515342315.0,286047006.6,P
1515342315.9,286047006.6,P
1515342335.8,286047005.7,P
1515342355.6,286047000.1,N
1515342375.4,286046999.4,N
1515342395.3,286046994.9,N
1515342415.1,286046994.5,N
1515342435.8,286046992.4,N
1515342455.7,286046992.4,N
1515342475.5,286046990.3,N
1515342495.4,286046990.5,N
1515342515.2,286046990.9,N
1515342535.0,286046990.8,N
1515342535.9,286046990.8,N
1515342555.8,286046988.7,N
1515342575.6,286046989.7,N
1515342595.4,286046989.5,N
1515342615.3,286046989.3,N
1515342635.1,286046990.0,N
1515342655.9,286046988.1,N
1515342675.7,286046989.1,N
1515342695.5,286046987.3,N
1515342715.4,286046987.0,N
1515342735.2,286046990.0,N
1515342755.0,286046985.3,N
1515342755.9,286046985.3,N
1515342775.8,286046986.0,N
1515342795.6,286046988.2,N
1515342815.5,286046987.8,N
1515342835.3,286046989.2,N
1515342855.1,286046989.3,N
1515342875.9,286046989.9,N
1515342895.7,286046989.6,N
1515342915.5,286046989.8,Y
1515342935.4,286046996.7,P
1515342955.2,286046995.7,N
1515342975.1,286046995.9,N
1515342976.0,286046995.9,N
1515342995.8,286046995.7,N
1515343015.6,286046995.0,N
1515343035.5,286046997.0,N
1515343055.3,286046997.3,N
1515343075.1,286046996.1,N
1515343095.9,286046995.4,N
1515343115.7,286046998.0,N
1515343135.6,286046998.9,N
1515343155.4,286046997.0,N
1515343175.2,286046997.4,N
1515343195.1,286046999.3,N
1515343196.0,286046999.3,N
1515343215.8,286046996.9,N
1515343235.6,286046997.5,N
1515343255.5,286046996.7,N
1515343275.3,286046999.2,N
1515343295.2,286046998.1,N
1515343315.9,286047001.2,N
1515343335.7,286047000.8,N
1515343355.6,286047000.3,N
1515343375.4,286047000.4,N
1515343395.2,286046999.8,N
1515343415.1,286047002.4,N
1515343416.0,286047002.4,N
1515343435.8,286047002.4,N
1515343455.7,286046999.9,N
1515343475.5,286046999.7,N
1515343495.3,286047000.4,N
1515343515.2,286047000.8,N
1515343535.0,286047000.9,N
1515343535.9,286047000.9,N
1515343555.8,286046998.4,N
1515343575.6,286046996.7,N
1515343595.4,286046997.2,N
1515343615.3,286046997.7,N
1515343635.1,286046998.0,N
1515343655.8,286046997.1,N
1515343675.7,286046999.6,N
1515343695.5,286046996.6,N
1515343715.4,286047000.9,N
1515343735.2,286047001.0,N
1515343755.0,286046999.5,N
1515343755.9,286046999.5,N
1515343775.8,286046997.4,N
1515343795.6,286046995.1,N
1515343815.5,286046995.5,N
1515343835.3,286046998.0,N
1515343855.1,286046996.8,N
1515343875.9,286046996.6,N
1515343895.7,286046997.8,N
1515343915.5,286046996.8,N
1515343935.4,286046999.6,N
1515343955.2,286046997.0,N
1515343975.1,286046996.7,N
1515343976.0,286046996.7,N
1515343995.8,286046999.2,N
1515344015.6,286047000.7,N
1515344035.5,286046998.4,N
1515344055.3,286046997.0,N
1515344075.1,286046999.2,N
1515344095.9,286047001.2,N
1515344115.7,286046996.5,N
1515344135.6,286046998.3,N
1515344155.4,286047000.4,N
1515344175.2,286047000.9,N
1515344195.1,286047000.3,N
1515344196.0,286047000.3,N
1515344215.8,286046998.5,N
1515344235.6,286047000.8,N
1515344255.5,286046998.1,N
1515344275.3,286046998.1,N
1515344295.2,286047000.8,N
1515344315.0,286047000.8,N
1515344315.9,286047000.8,N
1515344335.7,286047000.6,N
1515344355.6,286046999.8,N
1515344375.4,286046999.9,N
1515344395.3,286047000.0,N
